#timestamp,LO_Frequency,Hit,StdDev 
1562058015.1,286047001.2,N
1562058016.0,286047001.2,N
1562058035.8,286047001.2,N
1562058055.7,286047000.6,N
1562058075.5,286047000.8,N
1562058095.3,286046999.7,N
1562058115.2,286047000.6,N
1562058135.0,286047000.6,N
1562058135.9,286047000.6,N
1562058155.8,286046998.2,N
1562058175.6,286046998.5,N
1562058195.4,286046999.3,N
1562058215.3,286046998.2,N
1562058235.1,286047001.1,N
1562058255.9,286047000.5,N
1562058275.7,286047000.2,N
1562058295.5,286047000.4,N
1562058315.4,286046999.7,N
1562058335.2,286047002.6,N
1562058355.0,286047002.3,N
1562058355.9,286047002.3,N
1562058375.8,286047002.8,N
1562058395.6,286047002.4,N
1562058415.5,286047002.8,N
1562058435.3,286047000.2,N
1562058455.1,286047002.6,N
1562058475.9,286046999.9,N
1562058495.7,286047000.1,N
1562058515.6,286047002.3,N
1562058535.4,286047000.0,N
1562058555.2,286047002.1,N
1562058575.1,286047001.9,N
1562058576.0,286047001.9,N
1562058595.8,286047002.0,N
1562058615.6,286046999.7,N
1562058635.5,286047002.7,N
1562058655.3,286047002.2,N
1562058675.2,286047000.7,N
1562058695.9,286047000.2,N
1562058715.7,286046999.7,N
1562058735.6,286046999.9,N
1562058755.4,286046999.7,N
1562058775.3,286046999.7,N
1562058795.1,286047002.7,N
1562058796.0,286047002.7,N
1562058815.8,286047002.1,N
1562058835.7,286047001.5,N
1562058855.5,286047002.8,N
1562058875.3,286047002.4,N
1562058895.2,286047002.8,N
1562058915.0,286047000.4,N
1562058915.9,286047000.4,N
1562058935.8,286047000.3,N
1562058955.6,286047002.7,N
1562058975.4,286047002.0,N
1562058995.3,286047002.0,N
1562059015.1,286047001.5,N
1562059035.9,286047001.7,N
1562059055.7,286047001.3,N
1562059075.5,286047003.9,Y
1562059095.4,286047002.6,P
1562059115.2,286047002.4,P
1562059135.0,286047001.3,N
1562059135.9,286047001.3,N
1562059155.8,286047003.9,Y
1562059175.6,286047002.1,P
1562059195.5,286047002.3,P
1562059215.3,286046999.8,N
1562059235.1,286047000.7,N
1562059255.9,286046998.7,N
1562059275.7,286046998.1,N
1562059295.6,286047003.0,N
1562059315.4,286047006.7,Y
1562059335.2,286047009.2,P
1562059355.1,286047007.3,N
1562059356.0,286047007.3,N
1562059375.8,286047007.3,N
1562059395.6,286047007.0,N
1562059415.5,286047007.5,N
1562059435.3,286047005.4,N
1562059455.2,286047002.9,N
1562059475.9,286047003.8,N
1562059495.7,286047003.8,N
1562059515.6,286047004.3,N
1562059535.4,286047001.5,N
1562059555.2,286047002.4,N
1562059575.1,286047002.5,N
1562059576.0,286047002.5,N
1562059595.8,286047001.6,N
1562059615.7,286047004.3,N
1562059635.5,286047002.7,N
1562059655.3,286047002.7,N
1562059675.2,286047002.5,N
1562059695.0,286047002.0,N
1562059695.9,286047002.0,N
1562059715.8,286046999.8,N
1562059735.6,286047002.8,N
1562059755.4,286047002.7,N
1562059775.3,286046999.8,N
1562059795.1,286047000.3,N
1562059815.9,286047001.8,N
1562059835.7,286046999.8,N
1562059855.5,286047000.6,N
1562059875.4,286046999.9,N
1562059895.2,286046999.7,N
1562059915.0,286047000.1,N
1562059915.9,286047000.1,N
1562059935.8,286046998.7,N
1562059955.6,286047000.7,N
1562059975.5,286046998.3,N
1562059995.3,286046999.5,N
1562060015.1,286046996.5,N
1562060035.9,286046998.4,N
1562060055.7,286046998.9,N
1562060075.6,286047001.1,N
1562060095.4,286047000.9,N
1562060115.2,286046998.3,N
1562060135.1,286046999.9,N
1562060136.0,286046999.9,N
1562060155.8,286047000.7,N
1562060175.6,286047000.2,N
1562060195.5,286046999.9,N
1562060215.3,286046999.8,N
1562060235.2,286046999.7,N
1562060255.9,286047000.0,N
1562060275.7,286047002.8,N
1562060295.6,286047002.7,N
1562060315.6,286047002.5,N
1562060335.3,286047002.0,N
1562060355.1,286047002.6,N
1562060375.9,286047002.7,N
1562060395.7,286047002.0,N
1562060415.5,286047002.4,N
1562060435.4,286047001.9,N
1562060455.2,286047002.7,N
1562060475.1,286047002.6,N
1562060476.0,286047002.6,N
1562060495.8,286047000.3,N
1562060515.6,286047000.2,N
1562060535.5,286046999.8,N
1562060555.3,286047000.5,N
1562060575.2,286047002.6,N
1562060595.9,286047000.5,N
1562060615.7,286046998.1,N
1562060635.6,286047000.3,N
1562060655.4,286046999.9,N
1562060675.2,286047000.3,N
1562060695.1,286046998.2,N
1562060696.0,286046998.2,N
1562060715.8,286046998.3,N
1562060735.7,286047000.8,N
1562060755.5,286046998.3,N
1562060775.4,286046998.7,N
1562060795.2,286046996.6,N
1562060815.0,286046996.8,N
1562060815.9,286046996.8,N
1562060835.8,286046996.7,N
1562060855.6,286046996.6,N
1562060875.4,286046999.1,N
1562060895.3,286046996.9,N
1562060915.1,286046999.5,N
1562060935.9,286046999.4,N
1562060955.7,286046996.6,N
1562060975.5,286046997.4,N
1562060995.4,286046994.9,N
1562061015.2,286046994.9,N
1562061035.1,286046995.5,N
1562061036.0,286046995.5,N
1562061055.8,286046995.7,N
1562061075.6,286046996.4,N
1562061095.5,286046996.2,N
1562061115.3,286046997.6,N
1562061135.1,286046995.7,N
1562061155.9,286046995.6,N
1562061175.8,286046994.9,Y
1562061195.6,286046998.7,P
1562061215.5,286047001.2,N
1562061235.3,286046998.8,N
1562061255.1,286046998.6,N
1562061275.9,286046998.9,N
1562061295.7,286046999.6,N
1562061315.5,286046999.5,N
1562061335.4,286046999.0,N
1562061355.2,286046996.5,Y
1562061375.1,286046999.0,P
1562061376.0,286046999.0,P
1562061395.8,286046998.4,P
1562061415.6,286047000.7,N
1562061435.5,286046998.5,N
1562061455.3,286046998.1,N
1562061475.2,286047000.5,N
1562061495.9,286047001.1,N
1562061515.7,286047001.0,N
1562061535.6,286047000.6,N
1562061555.4,286047000.8,N
1562061575.2,286046999.7,N
1562061595.1,286046999.9,N
1562061596.0,286046999.9,N
